Время (UTC), дата Ветер
(°,м/с) 
Видим.   Явления Облачность Т
(°С)
Тd
(°С)
f(%) Тe
(°С)
Pmin
(гПа)
dP
(гПа)
Po
(мм)
O2
(г/м3)
Тmin Tmax R s Состояние
почвы
00 01.04.12 250 (З) 0200 м  туман  10/10 100 м 
[St]
+0.9 +0.6 98 -1  998.2  -0.3  738  296           
03 01.04.12 170 (Ю) 4000 м  дымка{туман}  10/10 100 м 
[St]
+0.8 +0.5 98 +1  997.5  -0.7  737  296        66  равномерный
мокрый или
старый снег
100% 
06 01.04.12 240 (ЮЗ) >10 км  {туман}  10/10 600 м 
[Sc]
+2.1 -1 80 +3  997.1  -0.3  737  295  +0.8         
09 01.04.12 170 (Ю) >10 км    8/8 600 м 
[Sc]
+4 -1.8 66 +4  996.4  -0.5  744  296           
12 01.04.12 200 (Ю) >10 км    3/3 600 м 
[Sc]
+4 -3.9 56 +4  995.2  -1.2  736  293           
15 01.04.12 150 (ЮВ) 10 км    10/0 средняя 
[As trans]
+3.1 -2.7 66 +2  993  -2.3  734  293    +4.2       
18 01.04.12 170 (Ю) 4000 м  слаб. снег{дождь}  10/10 200 м 
[Ns]
+0.6 -0.2 94 -1  991.2  -1.9  732  294    +4.2       
21 01.04.12 170 (Ю) 4000 м  слаб. снег  10/10 200 м 
[Ns]
+0.7 -0.1 94 -1  988.5  -2.7  730  293           
00 02.04.12 180 (Ю) 10 км  {снег}  8/8 300 м 
[Frnb]
+1.4 +0.3 92 +1  987.6  -0.8  730  292           
03 02.04.12 250 (З) 10 км  слаб. снег  10/10 300 м 
[Frnb|Ns]
+1.1 -0.9 87 989.1  1.4  731  293        64  равномерный
мокрый или
старый снег
100% 
06 02.04.12 240 (ЮЗ) 5-10{12}  >10 км  слаб. снег  10/10 600 м 
[Sc]
+2.2 -0.8 81 992  733  293  +0.3       
09 02.04.12 280 (З) 4-10{12}  >10 км    10/10 750 м 
[Sc]
+2.3 -1.7 75 998.2  6.1  738  295           
12 02.04.12 270 (З) 3{10}  >10 км    10/0 <0100 м верхняя 
[Ci fib]
+2.9 -4.5 58 +2  1002.8  4.6  741  296           
15 02.04.12 250 (З) >10 км    ясно 
+2.9 -4.5 58 +2  1004.5  1.6  743  297           
18 02.04.12 160 (Ю) 10 км    ясно 
-0.9 -3.6 82 1006.7  744  301    +3.8  0.0     
21 02.04.12 170 (Ю) н/о    н/о 
-1.8 -4.7 81 -1  1007.1  0.4  744  302           
00 03.04.12 160 (Ю) 10 км    3/3 <0100 м средняя 
[Ac lent]
-2.8 -5.5 82 -2  1007.5  0.2  745  304           
03 03.04.12 150 (ЮВ) >10 км    6/0 средняя 
[Ac cast]
-2.9 -5.7 81 -5  1006.6  -0.8  744  304        59  равномерный
мокрый или
старый снег
100% 
06 03.04.12 160 (Ю) >10 км  в посл. час снег  8/6 540 м средняя 
[Sc|Ac cast]
-1.5 -3.5 86 -3  1005.5  -1.1  743  301  -3.4         
09 03.04.12 160 (Ю) >10 км    8/0 <0100 м средняя 
[Ac As]
+1.8 -2.4 74 1003.3  -1.9  742  297           
12 03.04.12 240 (ЮЗ) >10 км  в посл. час снег  8/3 600 м средняя, верхняя 
[Sc|Ac cast|Ci fib]
+2.2 +0 85 +1  1002.8  -1.9  741  296           
15 03.04.12 250 (З) 3{12}  10 км  слаб. снег  10/3 600 м средняя, верхняя 
[Sc|As op|Cs]
-0.3 -2 88 -2  1005.1  2.2  743  300    +2.3       
18 03.04.12 250 (З) 5-10{10}  10 км  {снег}  6/6 <0100 м средняя 
[Ac As]
-0.1 -4.8 71 -3  1007.2  745  301    +2.3     
21 03.04.12 250 (З) 4{11}  10 км    10/0 <0100 м средняя 
[As trans]
-0.7 -5.5 70 -3  1009  1.7  746  302           
00 04.04.12 250 (З) 10 км    4/0 <0100 м средняя 
[Ac lent]
-1.7 -6 73 -4  1010.6  1.5  747  304           
03 04.04.12 260 (З) >10 км    ясно 
-2.3 -6.4 73 -4  1012.5  1.8  748  305        58  равномерный
мокрый или
старый снег
100% 
06 04.04.12 270 (З) 4{10}  >10 км    1/0 <0100 м средняя 
[Ac cast]
+0.3 -5.2 67 -2  1014.9  2.5  750  303  -2.3    0.0     
09 04.04.12 270 (З) н/о    н/о 
+2 -4.9 60 -1  1017  2.5  752  301           
12 04.04.12 270 (З) 4{13}  >10 км    8/8 800 м 
[Sc]
+2.1 -5.8 56 1018.9  1.8  753  302           
15 04.04.12 260 (З) >10 км    10/6 800 м верхняя 
[Sc|Ci fib]
+2 -6 55 +1  1019.9  754  302    +2.7       
18 04.04.12 250 (З) 10 км    3/0 <0100 м верхняя 
[Ci fib]
+0.6 -5.6 63 1021.5  1.5  755  304    +2.7       
21 04.04.12 тихо ()   10 км    10/0 <0100 м верхняя 
[Cc]
-1.3 -6 70 -1  1022.8  1.2  756  307           
00 05.04.12 250 (З) 10 км    10/0 <0100 м верхняя 
[Ci fib]
-2 -6.4 72 -1  1023.5  0.7  757  308           
03 05.04.12 160 (Ю) >10 км    10/0 <0100 м верхняя 
[Cs]
-1.7 -6.3 71 -1  1023.2  -0.3  756  307        58  равномерный
мокрый или
старый снег
100% 
06 05.04.12 160 (Ю) 10 км    10/0 <0100 м средняя 
[As trans]
-0.1 -5.4 67 -1  1023  0.1  756  305  -2.4         
09 05.04.12 140 (ЮВ) 2000 м  снег  10/0 <0100 м средняя 
[As trans]
-0.8 -1.9 92 -3  1019.8  -3.3  754  305           
12 05.04.12 130 (ЮВ) 10 км  слаб. снег  10/0 <0100 м средняя 
[As trans]
-0.2 -1.3 92 -2  1014.2  -3.3  750  302           
15 05.04.12 140 (ЮВ) 10 км  слаб. морось{снег}  10/0 <0100 м средняя 
[As trans]
+1.8 +0 88 +1  1009.9  -4.1  747  299    +1.8       
18 05.04.12 170 (Ю) 10 км  слаб. дождь{снег}  10/0 <0100 м средняя 
[As op]
+1.6 +0.5 92 +2  1009.8  0.1  746  299    +1.8     
21 05.04.12 260 (З) 10 км  {дождь}  10/0 <0100 м средняя 
[As op]
+3.3 +1.7 89 +3  1009.3  0.1  746  297           
00 06.04.12 290 (З) 10 км  {дождь}  10/10 210 м 
[St]
+1.2 +0.3 94 +1  1009.9  0.6  747  299           
03 06.04.12 360 (С) 10 км    10/10 400 м 
[St]
-0.4 -1.4 93 -1  1012  0.6  748  302        58  равномерный
мокрый или
старый снег
100% 
06 06.04.12 340 (С) >10 км    10/10 420 м 
[Frnb]
+0.3 -1.8 86 1014.4  2.4  750  302  -0.4       
09 06.04.12 010 (С) >10 км    10/10 720 м 
[Sc]
+1.9 -4.1 64 +1  1016.1  1.7  751  301           
12 06.04.12 010 (С) >10 км    1/1 600 м 
[Sc]
+3.6 -4.9 54 +3  1016.6  0.6  752  299           
15 06.04.12 110 (В) >10 км    ясно 
+2.3 -4.4 61 +2  1016.9  0.2  752  301           
18 06.04.12 140 (ЮВ) 10 км    ясно 
-0.7 -4.6 75 1017.9  0.8  752  304    +4       
21 06.04.12 тихо ()   10 км    ясно 
-2.6 -5.1 83 -3  1018  0.1  752  307           
00 07.04.12 110 (В) 10 км    ясно 
-3.7 -5 91 -3  1017.4  -0.7  752  308           
03 07.04.12 150 (ЮВ) 10 км    10/10 800 м 
[Sc]
-1.6 -5.2 76 -1  1017.4  0.1  752  305        58  равномерный
мокрый или
старый снег
100% 
06 07.04.12 190 (Ю) >10 км    10/10 800 м 
[Sc]
+0.4 -4.2 71 1016.9  -0.4  752  303  -4         
09 07.04.12 150 (ЮВ) >10 км    10/10 840 м 
[Sc]
+1.3 -3.6 70 +1  1016.2  -0.6  751  302           
12 07.04.12 140 (ЮВ) >10 км    10/10 840 м 
[Sc]
+1.6 -2.2 76 1014.6  -1.5  750  301           
15 07.04.12 130 (ЮВ) >10 км    10/3 600 м верхняя 
[Sc|Cs]
+2 -1 81 +1  1012.3  -2.2  748  299    +2.6       
18 07.04.12 140 (ЮВ) 10 км    8/0 <0100 м верхняя 
[Ci fib]
+2.9 +0.1 82 +1  1011.2  -1  748  298    +2.6       
21 07.04.12 150 (ЮВ) 10 км    4/0 <0100 м верхняя 
[Cc]
+3.2 +1.2 87 +2  1009.5  -1.6  746  297           
00 08.04.12 140 (ЮВ) 10 км    3/0 <0100 м верхняя 
[Ci fib]
+3.6 +2.2 91 +2  1007.7  -1.8  745  296           
03 08.04.12 150 (ЮВ) >10 км    3/0 <0100 м верхняя 
[Ci fib]
+4 +2.8 92 +3  1005.3  -2.3  743  295        57  равномерный
мокрый или
старый снег
100% 
06 08.04.12 160 (Ю) >10 км    10/0 <0100 м средняя 
[As trans]
+6 +3.5 84 +5  1003.9  -1.3  742  292  +1.7         
09 08.04.12 160 (Ю) >10 км    10/0 <0100 м средняя 
[Ac As]
+6.1 +3.2 82 +6  1004.5  0.5  743  292           
12 08.04.12 160 (Ю) >10 км    9/0 <0100 м средняя 
[Ac cast]
+7.6 +4 78 +6  1004.3  0.1  743  291           
15 08.04.12 160 (Ю) 3{10}  10 км  слаб. дождь{ливн. осадки}  10/8 800 м средняя 
[Sc|As op]
+6.3 +4.8 90 +5  1004.3  743  292    +7.9       
18 08.04.12 180 (Ю) 10 км  {ливн. осадки, дождь}  9/9 800 м 
[Sc]
+5.7 +4.7 93 +7  1005.3  0.9  743  293    +7.9     
21 08.04.12 140 (ЮВ) 10 км  {дождь}  9/9 800 м 
[Sc]
+5.8 +4.9 94 +7  1005.2  0.1  743  292           
00 09.04.12 170 (Ю) 10 км  {дождь}  10/10 840 м 
[Sc]
+5.9 +5 94 +7  1005.9  0.7  744  293           
03 09.04.12 160 (Ю) 2000 м  дымка  10/10 500 м 
[St]
+5.6 +5 96 +6  1006.8  0.8  744  293        44  равномерный
мокрый или
старый снег
100% 
06 09.04.12 150 (ЮВ) 2000 м  дымка{туман}  10/10 400 м 
[St]
+6.9 +6.3 96 +8  1007.4  0.7  745  292  +5.4       
09 09.04.12 150 (ЮВ) >10 км    9/0 средняя 
[Ac cast]
+8.9 +7.1 88 +10  1007.9  0.7  745  290           
12 09.04.12 150 (ЮВ) >10 км    8/0 средняя, верхняя 
[Ac lent|Ci fib]
+11.1 +6.9 75 +11  1007.5  -0.3  745  287           
15 09.04.12 090 (В) >10 км    10/0 средняя 
[Ac lent]
+10.1 +5.7 74 +11  1007  -0.6  745  288    +11.9       
18 09.04.12 110 (В) 10 км    9/0 <0100 м средняя 
[Ac cast]
+9.5 +5.6 77 +10  1006.6  -0.3  745  289    +7.9       
21 09.04.12 110 (В) 10 км    8/3 <0100 м средняя, верхняя 
[Ac cast|Ci fib]
+9.9 +5.8 76 +10  1005.2  -1.4  743  288           
00 10.04.12 140 (ЮВ) 10 км    5/0 <0100 м верхняя 
[Ci fib]
+6.7 +4.8 88 +8  1005.4  -0.1  743  292           
03 10.04.12 160 (Ю) 10 км    8/0 <0100 м верхняя 
[Ci fib]
+5.8 +4.3 90 +6  1006.4  0.9  744  293        39  равномерный
мокрый или
старый снег
100% 
06 10.04.12 160 (Ю) >10 км  слаб. дождь  10/10 800 м 
[Sc]
+7.8 +5.5 85 +9  1008.6  2.3  746  291  +5.4         
09 10.04.12 270 (З) >10 км  {дождь}  10/0 <0100 м верхняя 
[Ci fib]
+13.5 +7.7 68 +15  1009.6  1.3  747  285           
12 10.04.12 290 (З) >10 км  {дождь}  10/3 800 м средняя, верхняя 
[Sc|Ac cast|Ci fib]
+13.6 +7.9 68 +15  1011.7  748  286           
15 10.04.12 330 (СЗ) >10 км    10/0 <0100 м средняя 
[As op]
+11.6 +7.6 76 +13  1012.9  1.1  749  288    +14.1       
18 10.04.12 030 (СВ) 10 км    10/3 300 м средняя 
[St|As op]
+6.2 +4.7 90 +6  1015  1.8  751  295    +14.1  0.0     
21 10.04.12 040 (СВ) 10 км    10/0 средняя 
[As trans]
+3.5 +2.7 94 +3  1014.4  -0.7  750  298           
00 11.04.12 080 (В) 10 км  слаб. дождь  10/10 800 м 
[Sc]
+5.2 +4.2 93 +4  1012.8  -1.5  749  295           
03 11.04.12 070 (В) 4{10}  4000 м  дождь  10/10 300 м 
[Frnb|Ns]
+4.4 +3.6 94 +3  1012  -0.8  748  296        29  равномерный
мокрый или
старый снег
100% 
06 11.04.12 080 (В) 2{11}  >10 км  {дождь}  10/10 180 м 
[St]
+5.9 +4.3 89 +6  1011.6  -0.4  748  294  +3.4       
09 11.04.12 020 (С) 2{10}  >10 км    10/10 270 м 
[St]
+4.7 +3.1 89 +4  1011.9  0.2  748  296           
12 11.04.12 030 (СВ) >10 км    10/10 270 м 
[St]
+3.4 +1.7 89 +2  1012.6  0.7  749  298           
15 11.04.12 020 (С) >10 км    10/10 200 м 
[St]
+2.4 +1.4 93 +2  1014.1  1.4  750  299    +6       
18 11.04.12 030 (СВ) 2000 м  дымка  10/10 270 м 
[St]
+2.1 +1.5 96 +1  1015.6  1.5  751  300    +6     
21 11.04.12 010 (С) 2000 м  дымка  10/10 210 м 
[St]
+1.8 +1.3 97 +3  1016.3  0.6  751  301           
00 12.04.12 050 (СВ) 2000 м  дымка  10/10 300 м 
[St]
+1.4 +1.1 98 +2  1017.5  1.2  752  301           
03 12.04.12 тихо ()   2000 м  дымка  10/10 400 м 
[St]
+1.6 +1.2 97 +2  1018.5  753  301        22  равномерный
мокрый или
старый снег
100% 
06 12.04.12 130 (ЮВ) 10 км  {морось}  10/10 300 м 
[St]
+2.5 +1.7 94 +3  1019.1  0.6  753  301  +1.4         
09 12.04.12 160 (Ю) 10 км    10/10 <0100 м 
[Ns]
+4.7 +2.8 87 +6  1019.7  0.7  754  298           
12 12.04.12 120 (ЮВ) 10 км    10/10 <0100 м 
[Ns]
+5.9 +3 82 +6  1018.7  -0.9  753  297           
15 12.04.12 100 (В) 10 км    10/10 <0100 м 
[Ns]
+5.2 +2.8 85 +6  1018.5  -0.2  753  297    +6.6       
18 12.04.12 080 (В) 10 км    10/10 300 м 
[St]
+4.4 +2.4 87 +4  1018.1  -0.4  753  298    +6.6  0.0     
21 12.04.12 080 (В) 4000 м  слаб. морось  10/10 240 м 
[St]
+3.2 +2.3 94 +3  1017.2  -1  752  299           
00 13.04.12 110 (В) 2000 м  дымка{морось}  10/10 210 м 
[St]
+2.7 +2.2 96 +2  1015.7  -1.4  751  299           
03 13.04.12 100 (В) 0200 м  туман  10/10 210 м 
[St]
+1.6 +1.3 98 1014.1  -1.7  750  300        13  мокрый или
старый снег
50-90% 
06 13.04.12 100 (В) 2000 м  дымка{туман}  10/10 180 м 
[St]
+2.1 +1.7 97 1012  -2  748  299  +1.6    0.0     
09 13.04.12 100 (В) 5-10{12}  10 км  {дождь}  10/0 средняя 
[As trans]
+4.6 +3.6 93 +2  1007.5  -4.3  745  295           
12 13.04.12 110 (В) 3{12}  >10 км  {дождь}  10/0 средняя 
[Ac As]
+6.3 +3.9 85 +5  1005  -2.5  743  292           
15 13.04.12 110 (В) >10 км    10/0 <0100 м средняя 
[Ac As]
+6.8 +3.9 82 +7  1002.7  -2.2  741  291    +6.8       
18 13.04.12 140 (ЮВ) 10 км    5/5 <0100 м средняя 
[Ac cast]
+8.5 +5.8 83 +9  1001.2  -1.3  740  288    +6.8  0.7     
21 13.04.12 180 (Ю) 10 км    10/10 <0100 м 
[Ac As]
+7.6 +5.3 85 +8  1001  -0.3  740  289           
00 14.04.12 250 (З) 6{13}  10 км  в посл. час дождь  10/10 480 м 
[Sc]
+6 +3.8 86 +4  1001.6  0.4  741  291           
03 14.04.12 250 (З) 6{13}  10 км  {дождь}  10/10 330 м 
[St]
+4.4 +2.6 88 +2  1004.9  3.2  743  294        мокрый или
старый снег
50-90% 
06 14.04.12 250 (З) 6{12}  10 км    10/10 480 м 
[St]
+5 +2.6 84 +2  1008.7  3.7  746  295  +4.4    0.5     
09 14.04.12 250 (З) 6-12{12}  10 км    10/10 480 м 
[Sc|As trans]
+6.6 +3.6 81 +4  1011.3  2.7  748  294           
12 14.04.12 270 (З) >10 км    3/0 300 м 
[Sc]
+8.9 +3.7 70 +7  1013  1.7  749  292           
15 14.04.12 290 (З) 2{10}  >10 км    1/0 <0100 м верхняя 
[Ci sp]
+8.2 +3.4 72 +8  1014.4  1.4  750  293    +10.2       
18 14.04.12 тихо ()   10 км    4/0 средняя 
[Ac lent]
+4.4 +2.3 86 +4  1016.2  1.5  751  298    +8.1       
21 14.04.12 150 (ЮВ) 10 км    3/0 средняя 
[Ac lent]
+4.8 +2.6 86 +6  1016.7  0.5  752  297           
00 15.04.12 150 (ЮВ) 10 км    6/6 800 м 
[Sc]
+4.7 +1.8 81 +6  1017.8  0.5  753  298           
03 15.04.12 150 (ЮВ) >10 км    6/6 800 м 
[Sc]
+5.8 +2.1 77 +7  1018.5  0.8  753  297        мокрый или
старый снег
10-40% 
06 15.04.12 160 (Ю) >10 км    8/0 <0100 м средняя, верхняя 
[Ac lent|Ci fib]
+11.7 +3 55 +13  1018.8  0.5  754  291  +3.8         
09 15.04.12 150 (ЮВ) >10 км    4/0 верхняя 
[Cs]
+16 +4.1 45 +17  1018.7  0.1  754  286           
12 15.04.12 240 (ЮЗ) >10 км    3/0 верхняя 
[Cc]
+17.3 +5.6 46 +18  1018.8  0.2  754  285           
15 15.04.12 270 (З) >10 км    10/0 верхняя 
[Ci]
+15.7 +6.5 54 +17  1018.4  -0.5  753  286    +17.6       
18 15.04.12 160 (Ю) 10 км    ясно 
+10.9 +6.3 73 +12  1019.2  0.5  754  291    +15.6       
21 15.04.12 120 (ЮВ) 10 км    ясно 
+10 +6.6 79 +10  1019.4  0.2  754  292           
00 16.04.12 120 (ЮВ) 10 км    3/0 <0100 м верхняя 
[Ci fib]
+7.5 +5.9 90 +8  1019.8  0.2  754  295           
03 16.04.12 140 (ЮВ) >10 км    10/0 <0100 м верхняя 
[Ci fib]
+8.8 +6.3 84 +10  1019.9  0.3  754  293           
06 16.04.12 160 (Ю) >10 км    10/0 <0100 м верхняя 
[Cs]
+14.3 +6.3 59 +15  1019.9  0.3  755  288  +6.4         
09 16.04.12 120 (ЮВ) >10 км    10/0 <0100 м верхняя 
[Cs]
+18 +4.8 42 +19  1018.7  -1.1  754  284           
12 16.04.12 100 (В) >10 км    10/3 <0100 м средняя, верхняя 
[Ac cast|Ci fib]
+18.4 +4.5 40 +19  1017.1  -1.5  753  283           
15 16.04.12 110 (В) >10 км    9/9 <0100 м средняя 
[Ac As]
+16.7 +4.5 44 +17  1015.6  -1.6  751  285    +19.6       
18 16.04.12 100 (В) 10 км    9/0 <0100 м средняя 
[Ac As]
+14.4 +5.1 54 +15  1014.8  -0.9  751  287    +19.6       
21 16.04.12 110 (В) 10 км    3/0 <0100 м средняя 
[As trans]
+12.5 +6.1 65 +12  1013.6  -1.2  750  288           
00 17.04.12 110 (В) 10 км    6/0 <0100 м средняя, верхняя 
[As trans|Ci fib]
+12.2 +5.2 62 +12  1011.9  -1.7  749  288           
03 17.04.12 110 (В) >10 км    8/0 <0100 м верхняя 
[Cc]
+11.5 +4.1 60 +11  1010.2  -1.7  747  288           
06 17.04.12 140 (ЮВ) >10 км    10/0 средняя, верхняя 
[Ac cast|Cs]
+16.5 +4.9 46 +17  1009.1  -0.8  747  283  +11.1         
09 17.04.12 190 (Ю) >10 км    10/0 верхняя 
[Ci]
+21.5 +8.3 43 +22  1007.7  -1.1  746  277           
12 17.04.12 250 (З) >10 км    10/3 600 м верхняя 
[Sc|Ci fib]
+24.1 +10.7 43 +26  1007.4  -0.2  746  274           
15 17.04.12 290 (З) >10 км    10/3 600 м верхняя 
[Sc|Cs]
+21.3 +10.6 50 +23  1008.1  0.6  746  277    +24.5       
18 17.04.12 030 (СВ) 10 км    10/3 <0100 м средняя, верхняя 
[Ac cast|Cs]
+17.6 +10 61 +20  1008.8  0.5  746  281    +24.5       
21 17.04.12 350 (С) 10 км  в посл. час дождь  10/10 500 м 
[Sc]
+14.2 +10.1 76 +16  1008.9  -0.1  746  284           
03 18.04.12 тихо ()   10 км    10/10 <0100 м 
[Ac As]
+14.6 +9.8 73 +16  1008  -0.6  746  283           
06 18.04.12 300 (СЗ) >10 км    10/0 <0100 м средняя 
[Ac As]
+17.8 +10.2 61 +21  1007.2  -0.7  745  280  +12.5    0.0     
09 18.04.12 290 (З) >10 км    10/0 средняя 
[Sc|As trans]
+17.5 +11.2 67 +21  1007.9  0.6  746  280           
12 18.04.12 320 (СЗ) 10 км  в посл. час дождь{ливн. осадки}  10/10 400 м 
[Frnb]
+16.2 +11.1 72 +21  1007.9  0.1  746  282           
15 18.04.12 160 (Ю) >10 км  {дождь}  6/0 <0100 м верхняя 
[Cs]
+15.5 +11.7 78 +21  1007.1  -0.8  745  282    +18.7       
18 18.04.12 160 (Ю) 10 км  {дождь}  4/0 средняя 
[Ac cast]
+12.3 +10.7 90 +16  1007.4  0.2  745  285    +18.7  0.3     
21 18.04.12 200 (Ю) 10 км  в посл. час дождь  10/10 800 м 
[Sc]
+11.6 +10.4 92 +15  1007.4  0.1  745  286           
00 19.04.12 170 (Ю) 10 км  {дождь}  10/10 800 м 
[Sc]
+10.7 +10 95 +13  1007.7  0.3  745  287           
03 19.04.12 280 (З) >10 км    9/9 840 м 
[Sc]
+11.4 +10.4 94 +15  1009.2  1.5  746  287           
06 19.04.12 290 (З) >10 км    10/0 средняя, верхняя 
[As op|Ci sp]
+12.3 +10.1 86 +14  1010.5  1.3  747  286  +9.4         
09 19.04.12 020 (С) >10 км    10/6 330 м средняя 
[St|As op]
+12 +9.2 83 +12  1012  1.4  749  287           
12 19.04.12 360 (С) >10 км    10/10 300 м 
[St]
+10.8 +8.4 85 +10  1014.2  1.9  750  289           
15 19.04.12 010 (С) >10 км    10/10 540 м 
[Sc]
+10.1 +6.8 80 +10  1014.8  0.8  751  290    +13.6       
18 19.04.12 020 (С) 10 км    6/0 <0100 м верхняя 
[Ci fib]
+9 +5.9 81 +10  1015.9  751  292    +13.6       
21 19.04.12 080 (В) 10 км    ясно 
+7.6 +2.7 71 +8  1017.1  1.1  752  294           
00 20.04.12 070 (В) 10 км    ясно 
+6.8 +2.2 72 +7  1017.6  0.5  753  296           
03 20.04.12 080 (В) >10 км    3/0 <0100 м верхняя 
[Ci fib]
+6.3 +2.3 76 +5  1018.1  0.4  753  296           
06 20.04.12 090 (В) >10 км    6/0 <0100 м верхняя 
[Ci fib]
+10.7 +3.1 59 +10  1018.7  0.8  753  292  +6         
09 20.04.12 060 (СВ) >10 км    3/0 <0100 м верхняя 
[Ci fib]
+15 +4.5 49 +15  1018.2  -0.2  753  287           
12 20.04.12 070 (В) >10 км    ясно 
+17 +0.2 32 +17  1017.7  -0.5  753  286           
15 20.04.12 090 (В) >10 км    ясно 
+16.3 +0.4 34 +17  1017.1  -0.6  752  286    +17.5       
18 20.04.12 090 (В) 10 км    ясно 
+12.9 +1.1 44 +13  1017.5  0.2  754  290    +17.5       
21 20.04.12 100 (В) 10 км    ясно 
+10.8 -0.8 45 +10  1017.2  -0.4  752  292           
00 21.04.12 100 (В) 10 км    8/0 верхняя 
[Ci fib]
+9.3 -1.3 47 +8  1017  -0.3  752  293           
03 21.04.12 100 (В) >10 км    8/0 верхняя 
[Ci sp]
+9.1 -0.8 50 +9  1016.5  -0.5  752  293           
06 21.04.12 110 (В) >10 км    3/0 средняя 
[Ac lent]
+14.3 +0.6 39 +14  1015.5  -0.7  751  288  +8.2         
09 21.04.12 100 (В) >10 км    8/0 верхняя 
[Ci]
+21.4 +3.1 30 +21  1014.3  -0.9  751  280           
12 21.04.12 130 (ЮВ) >10 км    6/0 средняя, верхняя 
[Ac lent|Ci fib]
+24.4 +5.6 30 +24  1013.3  -0.9  750  277           
15 21.04.12 090 (В) >10 км    10/0 средняя, верхняя 
[Ac lent|Ci]
+22.5 +7.4 38 +23  1011.9  -1.4  749  278    +24.8       
18 21.04.12 100 (В) 10 км    5/0 <0100 м верхняя 
[Ci fib]
+18.2 +8.6 53 +19  1012.3  0.2  749  281    +24.8       
21 21.04.12 150 (ЮВ) 10 км    1/0 <0100 м средняя 
[Ac cast]
+18.4 +6.7 46 +19  1012.4  0.1  749  282           
00 22.04.12 150 (ЮВ) 4{10}  10 км    3/3 <0100 м средняя 
[Ac lent]
+16 +1.8 38 +16  1012.1  -0.4  749  285           
03 22.04.12 140 (ЮВ) >10 км    8/1 <0100 м средняя, верхняя 
[Ac cast|Ci fib]
+16.1 +0.2 34 +16  1011.2  -0.9  748  285           
06 22.04.12 160 (Ю) >10 км    10/0 средняя, верхняя 
[Ac lent|Ci]
+17.8 +1.7 34 +18  1010.8  -0.3  748  283  +15.5         
09 22.04.12 150 (ЮВ) >10 км    10/0 средняя 
[As trans]
+20.7 +3.3 32 +21  1009.6  -1.1  747  279           
12 22.04.12 150 (ЮВ) >10 км    9/0 <0100 м средняя, верхняя 
[Ac As|Cc]
+22.3 +4.4 31 +22  1009  -0.6  747  277           
15 22.04.12 180 (Ю) >10 км    10/3 600 м средняя 
[Sc|As trans]
+20.1 +6.3 41 +20  1008.5  -0.6  746  279    +22.7       
18 22.04.12 160 (Ю) 10 км  слаб. дождь  10/10 840 м 
[Sc]
+13.9 +12 88 +18  1009.9  1.1  747  284    +22.7       
21 22.04.12 170 (Ю) н/о    н/о 
+12.9 +11.7 92 +17  1010.9  748  285           
00 23.04.12 150 (ЮВ) 10 км  {дождь}  ясно 
+11.3 +10.6 95 +14  1011.3  0.3  748  287           
03 23.04.12 160 (Ю) >10 км    ясно 
+12 +10.7 92 +15  1012.5  1.2  749  287           
06 23.04.12 тихо ()   >10 км    ясно 
+18.5 +10.6 60 +20  1013.1  750  281  +10.4       
09 23.04.12 100 (В) >10 км    3/3 1000 м 
[Cu med, cong]
+21.9 +10.2 47 +23  1013.4  0.4  750  278           
12 23.04.12 150 (ЮВ) >10 км    3/3 1000 м 
[Cu med, cong]
+23.4 +7.8 37 +23  1012.6  -0.7  749  277           
15 23.04.12 170 (Ю) >10 км    ясно 
+22.1 +7.6 39 +22  1012.1  -0.5  749  278    +23.6       
18 23.04.12 110 (В) 10 км    ясно 
+18.5 +7.1 47 +20  1012.1  -0.2  749  281    +23.6       
21 23.04.12 090 (В) 10 км  слаб. ливневой дождь  10/10 630 м кучево-дожд. 
[Cb cap]
+17.1 +9.9 63 +19  1011.6  -0.6  748  282           
00 24.04.12 030 (СВ) 10 км  в посл. час ливневой дождь  10/10 900 м 
[Sc diur, vesp]
+13.3 +10.1 81 +15  1011.8  0.1  749  286           
03 24.04.12 170 (Ю) >10 км  гроза без осадков  10/6 700 м кучево-дожд., средняя 
[Cb cap|As op]
+13.7 +10.6 82 +16  1011.2  -0.6  748  285           
06 24.04.12 240 (ЮЗ) 4000 м  дождь{гроза}  10/10 330 м 
[Frnb]
+13.4 +10.9 85 +16  1011.6  0.4  748  285  +13.3    0.0     
09 24.04.12 220 (ЮЗ) 10 км  {дождь}  10/5 360 м средняя 
[Frnb|As op]
+15.5 +12.5 82 +21  1011.5  748  283           
12 24.04.12 150 (ЮВ) 10 км  в посл. час дождь  9/6 540 м средняя 
[Sc|Ac cast]
+15.3 +13.7 90 +23  1011.4  -0.2  748  283           
15 24.04.12 230 (ЮЗ) 10 км    9/8 450 м средняя 
[Frnb|Ac cast]
+15.8 +12.9 83 +22  1011.4  -0.1  748  282    +16.7       
18 24.04.12 250 (З) 10 км  слаб. дождь  10/10 480 м 
[Sc]
+12.2 +9.8 85 +13  1013.2  1.6  749  287    +16.7     
21 24.04.12 250 (З) 10 км  {дождь}  3/0 средняя 
[Ac trans]
+11.6 +9.5 87 +13  1014.3  750  288           
00 25.04.12 220 (ЮЗ) 10 км  {дождь}  ясно 
+9.8 +8.3 90 +11  1015.2  0.8  751  291           
03 25.04.12 170 (Ю) >10 км    ясно 
+10.7 +9.1 90 +12  1016.6  1.4  752  290           
06 25.04.12 210 (ЮЗ) >10 км    ясно 
+17.2 +10 63 +20  1017.2  753  284    +9.5  0.2     
09 25.04.12 260 (З) >10 км    4/0 
[Cu hum]
+21.3 +5.9 37 +21  1017.5  0.4  753  281           
12 25.04.12 260 (З) >10 км    6/6 600 м 
[Cu hum]
+22.7 +6 34 +23  1017.6  -0.1  753  279           
15 25.04.12 290 (З) >10 км    3/0 верхняя 
[Ci fib]
+22 +5.3 34 +22  1016.8  -0.5  752  280    +23       
18 25.04.12 170 (Ю) 10 км    5/0 верхняя 
[Ci fib]
+15.9 +7.3 57 +17  1018  0.9  753  286    +23       
21 25.04.12 160 (Ю) 10 км    5/0 <0100 м верхняя 
[Ci fib]
+15 +7.3 60 +16  1018.4  0.4  753  287           
00 26.04.12 тихо ()   10 км    5/0 <0100 м верхняя 
[Ci fib]
+12.7 +7.3 70 +13  1019  0.5  754  289           
03 26.04.12 160 (Ю) >10 км    5/0 верхняя 
[Ci fib]
+13.4 +8.1 70 +15  1019.3  0.4  754  288           
06 26.04.12 280 (З) >10 км    10/0 <0100 м верхняя 
[Ci fib]
+19.2 +8.9 51 +21  1019.7  0.6  755  283  +10.7         
09 26.04.12 310 (СЗ) >10 км    8/1 600 м верхняя 
[Cu med, cong|Ci fib]
+21.6 +5.7 35 +22  1019.3  -0.2  754  281           
12 26.04.12 290 (З) >10 км    3/3 600 м 
[Cu hum]
+23.7 +3.6 27 +24  1018.1  -1.1  754  279           
15 26.04.12 280 (З) >10 км    4/0 верхняя 
[Ci fib]
+22.8 +3.3 28 +23  1017.5  -0.7  753  280    +24       
18 26.04.12 тихо ()   10 км    1/0 <0100 м верхняя 
[Ci fib]
+16.6 +5.4 47 +17  1018.1  0.4  753  285    +24       
21 26.04.12 тихо ()   10 км    ясно 
+13.4 +6.1 61 +13  1017.9  -0.3  753  288           
00 27.04.12 тихо ()   10 км    ясно 
+11.7 +6.4 70 +12  1017.7  -0.3  753  290           
03 27.04.12 160 (Ю) >10 км    8/0 <0100 м верхняя 
[Ci]
+14.7 +7 60 +16  1017.4  -0.2  753  287           
06 27.04.12 280 (З) >10 км    8/0 <0100 м средняя 
[Ac cast]
+22 +6.4 36 +22  1016.4  -0.6  752  279  +11.2         
09 27.04.12 290 (З) >10 км    8/4 900 м верхняя 
[Cu med, cong|Ci fib]
+24.1 +4.7 28 +24  1015.5  -0.8  752  278           
12 27.04.12 270 (З) >10 км  гроза без осадков  9/6 660 м кучево-дожд., средняя, верхняя 
[Cb calv|Ac cast|Ci]
+24.2 +4.1 27 +24  1014.1  -1.4  751  277           
15 27.04.12 310 (СЗ) >10 км  {ливн. осадки}  9/6 960 м средняя 
[Sc diur, vesp|Ac As]
+19.1 +8.4 50 +20  1015.2  0.9  751  281    +25.1       
18 27.04.12 тихо ()   10 км  {ливн. осадки}  8/8 700 м кучево-дожд. 
[Cb cap]
+17.5 +8.6 56 +18  1016.4  1.1  752  283    +25.1  0.0     
21 27.04.12 тихо ()   10 км    ясно <0100 м 
+14.1 +9.8 75 +15  1016.7  0.1  752  286           
00 28.04.12 350 (С) 10 км    ясно <0100 м 
+12.8 +9.7 81 +15  1017  0.3  752  288           
03 28.04.12 320 (СЗ) >10 км    10/0 <0100 м верхняя 
[Ci fib]
+11.8 +10.2 90 +14  1018.4  1.3  753  289           
06 28.04.12 290 (З) >10 км    3/0 <0100 м верхняя 
[Ci fib]
+18 +11 64 +21  1017.9  -0.2  753  283  +10.7         
09 28.04.12 300 (СЗ) >10 км    8/3 1000 м верхняя 
[Cu med, cong|Ci fib]
+22.3 +8.5 41 +22  1017  -0.7  753  279           
12 28.04.12 300 (СЗ) >10 км    10/1 1000 м верхняя 
[Cu hum|Ci fib]
+22.8 +8.8 41 +23  1015.5  -1.5  752  278           
15 28.04.12 270 (З) >10 км    4/0 <0100 м верхняя 
[Ci fib]
+22.3 +7.3 38 +22  1013.3  -2.2  750  278    +23.2       
18 28.04.12 290 (З) 10 км    ясно 
+18.9 +8.3 50 +20  1013.3  -2.2  750  281           
21 28.04.12 350 (С) 1{11}  10 км    8/0 <0100 м средняя 
[Ac lent]
+15.2 +10.2 72 +18  1015  1.6  751  285           
00 29.04.12 300 (СЗ) 10 км    3/0 верхняя 
[Ci fib]
+13.5 +8.6 72 +15  1016.2  752  287           
03 29.04.12 280 (З) >10 км    10/0 верхняя 
[Ci fib]
+12.1 +8.6 79 +13  1016.4  0.1  752  289           
06 29.04.12 280 (З) >10 км    8/0 <0100 м верхняя 
[Ci fib]
+16.5 +3.1 41 +17  1015.8  -0.4  752  285  +11.6         
09 29.04.12 270 (З) >10 км    10/0 верхняя 
[Cu hum|Ci fib]
+20.1 +3.9 34 +20  1013.2  -2.4  750  281           
12 29.04.12 260 (З) 4{10}  10 км    10/10 <0100 м 
[Ac As]
+19.3 +1.7 31 +20  1009.1  -4  747  281           
15 29.04.12 270 (З) 4{12}  10 км    10/8 1000 м кучево-дожд., средняя 
[Cb calv|Ac As]
+19.9 +8.5 48 +21  1004.8  -4.2  744  278    +20.5       
18 29.04.12 320 (СЗ) 6-12{15}  4000 м  ливневой дождь  10/10 700 м кучево-дожд. 
[Cb cap]
+13.6 +8.9 73 +13  1006.1  0.9  744  284    +20.5       
21 29.04.12 340 (С) 2{14}  10 км  {ливн. осадки}  10/0 <0100 м средняя 
[Ac As]
+10 +1.9 57 +10  1006.8  0.5  745  289           
00 30.04.12 320 (СЗ) 10 км  {ливн. осадки}  9/9 <0100 м средняя 
[Ac As]
+8.8 +2 62 +8  1007.9  1.1  745  291           
03 30.04.12 320 (СЗ) 10 км    10/10 840 м 
[Sc]
+7.8 +2 67 +7  1008.4  0.5  746  292           
06 30.04.12 360 (С) >10 км    10/10 840 м 
[Sc]
+8.6 +1.9 63 +8  1008.7  0.3  746  291  +7.8       
09 30.04.12 350 (С) >10 км    9/9 800 м 
[Sc]
+10.7 +0.9 51 +10  1008.6  0.3  746  289           
12 30.04.12 340 (С) >10 км    10/10 800 м 
[Sc]
+9.7 -0.4 49 +10  1009.3  0.6  746  290           
15 30.04.12 350 (С) >10 км    9/9 870 м 
[Sc]
+9 -1 50 +9  1010.1  0.7  747  291    +10.9       
18 30.04.12 340 (С) 10 км    10/5 1380 м средняя 
[Sc|Ac trans]
+6.9 +0.2 62 +7  1012  1.7  748  294    +10.9       
21 30.04.12 010 (С) 10 км    ясно 
+5.5 +0.3 69 +4  1013  749  296           
00 01.05.12 350 (С) 10 км    ясно 
+3.7 +0.3 78 +5  1013.6  0.4  749  298           
03 01.05.12 320 (СЗ) >10 км    ясно 
+3.9 +0.9 81 +5  1013.8  0.2  750  298           
06 01.05.12 300 (СЗ) >10 км    10/3 600 м верхняя 
[Cu hum|Cs]
+7.2 +1.3 66 +6  1012.8  -0.8  749  294  +3.2         
09 01.05.12 320 (СЗ) >10 км    10/1 600 м средняя, верхняя 
[Cu hum|Ac cast|Ci]
+9.8 +0.2 51 +10  1010.1  -2.5  747  291           
12 01.05.12 300 (СЗ) >10 км    8/3 1000 м средняя, верхняя 
[Cu hum|Ac lent|Ci fib]
+11.4 +0.6 47 +11  1006.8  -3.1  745  288           
15 01.05.12 240 (ЮЗ) >10 км    9/6 930 м средняя 
[Sc|Ac cast]
+11.6 +0.3 46 +12  1003.4  -3.3  742  287    +12       
18 01.05.12 220 (ЮЗ) 10 км  слаб. дождь  10/10 800 м 
[Sc diur, vesp]
+10 +2.8 61 +11  1000.4  -3  740  287    +12       
21 01.05.12 110 (В) 10 км  {дождь}  10/10 930 м 
[Sc]
+8 +3.5 73 +8  996.4  -4.1  737  288           
00 02.05.12 090 (В) 10 км  {дождь}  10/8 960 м средняя 
[Sc|Ac cast]
+7.4 +3.1 74 +7  995.5  -0.8  736  288           
03 02.05.12 060 (СВ) >10 км    10/3 600 м средняя 
[Sc|As op]
+7.1 +3.8 79 +6  998.7  3.1  739  289           
06 02.05.12 040 (СВ) 10 км    10/10 840 м 
[Sc]
+8.8 +3.7 70 +8  1002.9  4.2  742  289  +6.9    0.0     
Время (UTC), дата Ветер
(°,м/с) 
Видим.   Явления Облачность Т
(°С)
Тd
(°С)
f(%) Тe
(°С)
Pmin
(гПа)
dP
(гПа)
Po
(мм)
O2
(г/м3)
Тmin Tmax R s Состояние
почвы